CFC14 CYVR-CYHZ

Flight info

Callsign CFC14
Flight time N/A
Altitude 37000
Route VIDRI DCT ROMRA DCT 5230N11000W DCT KEBRU DCT 5130N10000W DCT VESRU DCT JARRO DCT TAMKO DCT EBONY FUNDY5
Aircraft CL60/M-SBDE1E2E3FGHIJ1J4J5J7M3RWXYZ/LB1V1D1

Departure

Time 2026-05-07 21:18
Airport Vancouver International Airport (CYVR)

Arrival

Time N/A
Airport Halifax / Stanfield International Airport (CYHZ)
Time Latitude Longitude Altitude Speed Heading
2026-05-07 20:34 49.18163 -123.16116 14 ft 0 kts 190°
2026-05-07 21:14 49.18147 -123.16129 14 ft 0 kts 245°
2026-05-07 21:15 49.18147 -123.16134 14 ft 4 kts 262°
2026-05-07 21:15 49.18146 -123.16237 14 ft 13 kts 269°
2026-05-07 21:15 49.18163 -123.16279 14 ft 7 kts
2026-05-07 21:15 49.18220 -123.16270 14 ft 10 kts
2026-05-07 21:16 49.18287 -123.16263 14 ft 0 kts
2026-05-07 21:16 49.18301 -123.16261 14 ft 8 kts
2026-05-07 21:16 49.18386 -123.16250 14 ft 17 kts
2026-05-07 21:16 49.18476 -123.16230 14 ft 7 kts
2026-05-07 21:17 49.18498 -123.16289 14 ft 10 kts 277°
2026-05-07 21:17 49.18501 -123.16309 14 ft 0 kts 283°
2026-05-07 21:17 49.18509 -123.16373 14 ft 29 kts 279°
2026-05-07 21:18 49.18578 -123.16993 14 ft 104 kts 280°
2026-05-07 21:18 49.18722 -123.18214 69 ft 157 kts 281°
2026-05-07 21:18 49.18909 -123.19740 528 ft 174 kts 280°
2026-05-07 21:18 49.19074 -123.21429 1200 ft 186 kts 278°
2026-05-07 21:19 49.19214 -123.23221 1908 ft 195 kts 277°
2026-05-07 21:19 49.19343 -123.25086 2712 ft 199 kts 277°
2026-05-07 21:19 49.19477 -123.27017 3283 ft 216 kts 277°
2026-05-07 21:19 49.19649 -123.29073 3791 ft 217 kts 278°
2026-05-07 21:20 49.19822 -123.31107 4296 ft 215 kts 279°
2026-05-07 21:20 49.20070 -123.33067 4762 ft 215 kts 295°
2026-05-07 21:20 49.20891 -123.34631 5212 ft 214 kts 329°
2026-05-07 21:20 49.22139 -123.35207 5663 ft 212 kts
2026-05-07 21:21 49.23369 -123.34639 6137 ft 213 kts 31°
2026-05-07 21:21 49.24479 -123.33533 6626 ft 214 kts 35°
2026-05-07 21:21 49.25570 -123.32358 7107 ft 216 kts 36°
2026-05-07 21:21 49.26568 -123.31036 7589 ft 218 kts 47°
2026-05-07 21:22 49.27466 -123.29479 8080 ft 220 kts 50°
2026-05-07 21:22 49.28383 -123.27823 8584 ft 232 kts 50°
2026-05-07 21:22 49.29356 -123.26061 9171 ft 248 kts 50°
2026-05-07 21:22 49.30385 -123.24195 9908 ft 258 kts 50°
2026-05-07 21:23 49.31484 -123.22199 10721 ft 265 kts 50°
2026-05-07 21:23 49.32637 -123.20101 11562 ft 271 kts 50°
2026-05-07 21:23 49.33793 -123.17995 12267 ft 280 kts 49°
2026-05-07 21:23 49.34969 -123.15849 12863 ft 293 kts 49°
2026-05-07 21:24 49.36237 -123.13535 13459 ft 306 kts 49°
2026-05-07 21:24 49.37541 -123.11150 14038 ft 318 kts 49°
2026-05-07 21:24 49.38978 -123.08518 14662 ft 329 kts 49°
2026-05-07 21:24 49.40451 -123.05815 15267 ft 339 kts 49°
2026-05-07 21:25 49.41966 -123.03033 15912 ft 347 kts 48°
2026-05-07 21:25 49.43502 -123.00208 16523 ft 356 kts 48°
2026-05-07 21:25 49.44915 -122.97605 17048 ft 362 kts 48°
2026-05-07 21:25 49.46322 -122.95010 17579 ft 367 kts 48°
2026-05-07 21:26 49.47782 -122.92316 18134 ft 371 kts 47°
2026-05-07 21:26 49.49355 -122.89408 18748 ft 376 kts 47°
2026-05-07 21:26 49.51003 -122.86358 19332 ft 380 kts 47°
2026-05-07 21:26 49.52628 -122.83347 19949 ft 383 kts 47°
2026-05-07 21:27 49.54261 -122.80317 20547 ft 386 kts 47°
2026-05-07 21:27 49.55887 -122.77298 21142 ft 388 kts 46°
2026-05-07 21:27 49.57549 -122.74205 21759 ft 389 kts 46°
2026-05-07 21:27 49.59193 -122.71145 22366 ft 390 kts 46°
2026-05-07 21:28 49.60842 -122.68069 22965 ft 391 kts 46°
2026-05-07 21:28 49.62514 -122.64949 23574 ft 393 kts 46°
2026-05-07 21:28 49.64199 -122.61799 24184 ft 394 kts 46°
2026-05-07 21:28 49.65855 -122.58699 24787 ft 394 kts 45°
2026-05-07 21:29 49.67548 -122.55527 25388 ft 395 kts 45°
2026-05-07 21:29 49.69252 -122.52329 26012 ft 394 kts 45°
2026-05-07 21:29 49.70982 -122.49079 26640 ft 394 kts 45°
2026-05-07 21:29 49.72675 -122.45894 27261 ft 392 kts 45°
2026-05-07 21:30 49.74377 -122.42687 27881 ft 390 kts 45°
2026-05-07 21:30 49.76067 -122.39499 28492 ft 388 kts 44°
2026-05-07 21:30 49.77736 -122.36350 28906 ft 391 kts 44°
2026-05-07 21:30 49.79466 -122.33086 29076 ft 401 kts 45°
2026-05-07 21:31 49.81253 -122.29711 29266 ft 409 kts 45°
2026-05-07 21:31 49.83069 -122.26277 29435 ft 418 kts 45°
2026-05-07 21:31 49.84913 -122.22781 29617 ft 425 kts 45°
2026-05-07 21:31 49.86776 -122.19245 29803 ft 432 kts 45°